St Catherine Internationa, Egypt

6:53 AM EET on March 23, 2017 (GMT +0200)
Saint Catherine International

Weather History for HESC - February, 2014

Change the Weather History Date:

Monday, February 3, 2014

  Actual Average Record
Temperature  
Mean Temperature 48 °F -  
Max Temperature 55 °F - - ()
Min Temperature 42 °F - - ()
Degree Days  
Heating Degree Days 16    
Moisture  
Dew Point 36 °F    
Average Humidity 64    
Maximum Humidity 87    
Minimum Humidity 28    
Precipitation  
Precipitation 0.00 in - - ()
Sea Level Pressure  
Sea Level Pressure 29.98 in    
Wind  
Wind Speed 14 mph ()    
Max Wind Speed 26 mph    
Max Gust Speed -    
Visibility 6.2 miles    
Events      
T = Trace of Precipitation, MM = Missing Value Source: Averaged Metar Reports

Daily Weather History Graph

Daily Weather History Graph

Search for Another Location

Airport or City:

Trip Planner

Search our weather history database for the weather conditions in past years. The results will help you decide how hot, cold, wet, or windy it might be!

Date:

Astronomy

Feb. 03, 2014 Rise Set
Actual Time 6:30 AM EET 5:24 PM EET
Civil Twilight 6:06 AM EET 5:49 PM EET
Nautical Twilight 5:38 AM EET 6:17 PM EET
Astronomical Twilight 5:10 AM EET 6:45 PM EET
Moon 8:44 AM EET (2/3) 9:26 PM EET (2/3)
Length of Visible Light 11h 42m
Length of Day
10h 53m
Waxing Crescent, 17% of the Moon is Illuminated
Feb 3
Waxing Crescent
Feb 6
First Quarter
Feb 15
Full
Feb 22
Last Quarter
Mar 1
New

Hourly Weather History & Observations

Time (EET) Temp. Windchill Dew Point Humidity Pressure Visibility Wind Dir Wind Speed Gust Speed Precip Events Conditions
12:00 AM 53.6 °F - 21.2 °F 28% 29.92 in - West 9.2 mph - N/A   Clear
1:00 AM 51.8 °F - 26.6 °F 38% 29.89 in - West 20.7 mph - N/A   Clear
2:00 AM 51.8 °F - 28.4 °F 41% 29.89 in - West 23.0 mph - N/A   Clear
3:00 AM 50.0 °F - 30.2 °F 47% 29.89 in - ENE 18.4 mph - N/A   Clear
4:00 AM 46.4 °F 39.8 °F 35.6 °F 66% 29.89 in - West 16.1 mph - N/A   Clear
5:00 AM 44.6 °F 37.8 °F 37.4 °F 76% 29.89 in - West 15.0 mph - N/A   Clear
6:00 AM 44.6 °F 36.6 °F 37.4 °F 76% 29.89 in - West 19.6 mph - N/A   Clear
7:00 AM 44.6 °F 36.4 °F 37.4 °F 76% 29.92 in - ENE 20.7 mph - N/A   Clear
8:00 AM 46.4 °F 37.7 °F 35.6 °F 66% 29.92 in 6.2 mi WSW 26.5 mph - N/A   Partly Cloudy
9:00 AM 48.2 °F - 37.4 °F 66% 29.98 in 6.2 mi West 23.0 mph - N/A   Scattered Clouds
10:00 AM 50.0 °F - 37.4 °F 62% 30.01 in 6.2 mi West 21.9 mph - N/A   Partly Cloudy
11:00 AM 51.8 °F - 28.4 °F 41% 29.98 in 6.2 mi WSW 12.7 mph - N/A   Partly Cloudy
12:00 PM 55.4 °F - 35.6 °F 47% 29.98 in 6.2 mi West 16.1 mph - N/A   Partly Cloudy
1:00 PM 55.4 °F - 39.2 °F 54% 29.98 in 6.2 mi West 17.3 mph - N/A   Partly Cloudy
2:00 PM 55.4 °F - 39.2 °F 54% 30.01 in 6.2 mi WNW 15.0 mph - N/A   Partly Cloudy
3:00 PM 53.6 °F - 39.2 °F 58% 30.01 in 6.2 mi SW 20.7 mph - N/A   Partly Cloudy
4:00 PM 53.6 °F - 41.0 °F 62% 30.01 in 6.2 mi WNW 19.6 mph - N/A   Partly Cloudy
5:00 PM 51.8 °F - 41.0 °F 67% 30.01 in 6.2 mi WNW 12.7 mph - N/A   Partly Cloudy
6:00 PM 48.2 °F - 39.2 °F 71% 30.01 in 6.2 mi NNW 16.1 mph - N/A   Partly Cloudy
7:00 PM 46.4 °F 39.5 °F 39.2 °F 76% 30.01 in - WNW 17.3 mph - N/A   Clear
8:00 PM 46.4 °F 41.9 °F 41.0 °F 81% 30.04 in - NNW 9.2 mph - N/A   Clear
9:00 PM 44.6 °F 41.4 °F 41.0 °F 87% 30.09 in - NW 5.8 mph - N/A   Clear
10:00 PM 44.6 °F 41.4 °F 41.0 °F 87% 30.09 in - NW 5.8 mph - N/A   Clear
10:06 PM 42.8 °F 38.0 °F 39.2 °F 87% 30.09 in - West 8.1 mph - N/A   Clear
11:00 PM 42.8 °F - 39.2 °F 87% 30.09 in - Calm Calm - N/A   Clear